Regional Weather Roundup
Issued by NWS

Home | Current Version | Previous Version | Text Only | Print | Product List | Glossary On
Versions: 1 2 3 4 5 6 7 8 9 10 11 12 13 14 15 16 17 18 19 20 21 22 23 24 25 26 27 28 29 30 31 32 33 34 35 36 37 38 39 40 41 42 43 44 45 46 47 48 49 50
000
ASUS43 KMKX 181900
RWRWI

WISCONSIN REGIONAL WEATHER ROUNDUP
NATIONAL WEATHER SERVICE MILWAUKEE/SULLIVAN WI
100 PM CST SAT NOV 18 2017

NOTE: "FAIR" INDICATES FEW OR NO CLOUDS BELOW 12,000 FEET WITH NO
SIGNIFICANT WEATHER AND/OR OBSTRUCTIONS TO VISIBILITY.

WIZ001-002-006>008-014>016-023>028-182000-
NORTHWEST WISCONSIN

CITY           SKY/WX    TMP DP  RH WIND       PRES   REMARKS
SUPERIOR ARPT  CLOUDY    30  20  64 NW10G16   29.82R WCI  21
ASHLAND        CLOUDY    32  24  72 NW13      29.76R WCI  22
HAYWARD        PTSUNNY   33  20  58 NW9       29.75R WCI  25
SIREN          SUNNY     32  19  56 NW13G21   29.80R WCI  23
CUMBERLAND     SUNNY     32  21  64 NW15      29.77R WCI  22
RICE LAKE      MOSUNNY   34  25  68 W15       29.78R WCI  24
CHETEK         SUNNY     35  26  67 NW7G20    29.75R WCI  30
LADYSMITH      PTSUNNY   35  29  78 NW12      29.74R WCI  27
EAU CLAIRE     MOSUNNY   38  27  64 NW14      29.74S WCI  30
MENOMONIE      SUNNY     38  26  61 NW14G21   29.77R WCI  29
NEW RICHMOND   SUNNY     34  22  62 NW15      29.80S WCI  24
OSCEOLA        MOSUNNY   35  23  63 NW13      29.84S WCI  26
$$

WIZ003>005-009-010-017-018-182000-
NORTH CENTRAL WISCONSIN

CITY           SKY/WX    TMP DP  RH WIND       PRES   REMARKS
MANITOWISH WTR CLOUDY    31  31 100 NW7       29.66S WCI  24
ARBOR VITAE    MOSUNNY   34  32  93 N12       29.66R WCI  25
WOODRUFF       MOSUNNY   34  32  93 N12       29.66R WCI  25
RHINELANDER    CLOUDY    33  31  92 VRB7      29.66R WCI  27
EAGLE RIVER    CLOUDY    32  30  93 N6        29.65R WCI  26
LAND O LAKES   CLOUDY    32  29  90 NW6       29.66R WCI  26
PHILLIPS       CLOUDY    31  28  87 NW7       29.69R WCI  25
TOMAHAWK       CLOUDY    33  29  85 NW7       29.67S WCI  26
MEDFORD        CLOUDY    34  28  80 N9        29.67S WCI  26
MERRILL        CLOUDY    35  30  83 N13       29.67R WCI  26
$$

WIZ029-030-035-036-043>047-182000-
CENTRAL WISCONSIN

CITY           SKY/WX    TMP DP  RH WIND       PRES   REMARKS
WAUSAU         CLOUDY    35  29  78 NW13G20   29.65R WCI  26
MOSINEE        CLOUDY    36  30  80 NW12      29.67R WCI  27
MARSHFIELD     CLOUDY    37  29  72 N15G22    29.66S WCI  28
STEVENS POINT  CLOUDY    35  30  83 NW12G17   29.66R WCI  26
WAUPACA        CLOUDY    40  32  73 NW12      29.64R WCI  33
WAUTOMA        CLOUDY    38  32  79 NW10G17   29.65R WCI  31
WISC RAPIDS    CLOUDY    38  30  73 N14G22    29.68R WCI  30
CAMP DOUGLAS   NOT AVBL
$$

WIZ011>013-019>022-031-037>040-048>050-182000-
NORTHEAST WISCONSIN

CITY           SKY/WX    TMP DP  RH WIND       PRES   REMARKS
ANTIGO         CLOUDY    33  30  91 N14       29.64R WCI  23
SHAWANO        CLOUDY    39  31  73 N12       29.62S WCI  32
OCONTO         CLOUDY    38  32  79 N10G17    29.60S WCI  31
STURGEON BAY   CLOUDY    38  34  85 N22G29    29.57S WCI  27
GREEN BAY      CLOUDY    39  34  82 N13       29.61R WCI  31
MANITOWOC      CLOUDY    39  35  86 N17G26    29.56S WCI  30
APPLETON       CLOUDY    37  30  75 N10G16    29.60R WCI  30
CLINTONVILLE   CLOUDY    37  30  75 N8        29.63R WCI  31
OSHKOSH        CLOUDY    38  33  82 N14       29.60S WCI  30
$$

WIZ032>034-041-042-053>061-182000-
SOUTHWEST WISCONSIN

CITY           SKY/WX    TMP DP  RH WIND       PRES   REMARKS
LA CROSSE      MOSUNNY   44  31  60 NW14      29.72F
SPARTA         CLOUDY    37  32  81 NW7       29.72S WCI  32
VIROQUA        CLOUDY    37  33  87 NW14      29.69S WCI  28
BOSCOBEL       CLOUDY    41  32  70 N13       29.70F
PRAIRIE DU CHI PTSUNNY   39  32  75 NW9       29.71F WCI  33
PLATTEVILLE    CLOUDY    37  37 100 NW14G22   29.66F WCI  29
$$

WIZ056-057-062-063-064-067-068-182000-
SOUTH CENTRAL WISCONSIN

CITY           SKY/WX    TMP DP  RH WIND       PRES   REMARKS
REEDSBURG      CLOUDY    37  33  85 NW9       29.67R WCI  30
BARABOO/DELLS  CLOUDY    37  32  84 N8G17     29.65S WCI  30
LONE ROCK      CLOUDY    38  34  85 NW10      29.68S WCI  31
MINERAL POINT  CLOUDY    36  36 100 N18       29.65S WCI  25
MADISON        CLOUDY    37  35  92 N12G20    29.63R WCI  29
MIDDLETON      CLOUDY    38  37  94 NW18G24   29.64R WCI  28
WATERTOWN      CLOUDY    37  37 100 N17G24    29.59R WCI  27
MONROE         CLOUDY    36  34  93 N14G26    29.62R WCI  27
JANESVILLE     CLOUDY    37  37 100 N18G26    29.60R WCI  27
$$

WIZ051-052-058>065-066-070>072-182000-
SOUTHEAST WISCONSIN

CITY           SKY/WX    TMP DP  RH WIND       PRES   REMARKS
MILWAUKEE      CLOUDY    40  36  86 N20       29.53R WCI  30
WAUKESHA       CLOUDY    36  34  93 NW17G24   29.56R WCI  25
MILWAUKEE/TIMM CLOUDY    37  34  87 N21       29.55R WCI  27
RACINE         CLOUDY    39  36  89 N15G31    29.53R WCI  31
BURLINGTON     CLOUDY    39  39 100 N15G23    29.54R WCI  31
KENOSHA        CLOUDY    39  35  86 N17G25    29.52R WCI  30
FOND DU LAC    CLOUDY    39  32  76 N16       29.61R WCI  30
SHEBOYGAN      LGT RAIN  38  36  92 N15G25    29.56R WCI  29
WEST BEND      CLOUDY    36  34  93 N15       29.56R WCI  26
JUNEAU         CLOUDY    36  33  89 N13G21    29.60R WCI  28
$$

LSZ147-162-182000-
LAKE SUPERIOR

STATION/POSITION TIME  TEMP    WIND        PRES    WAVE
                       AIR SEA DIR/SP/G            HT/PER
                 (UTC) (F)     (DEG/KT/KT) (MB)    (FT/S)
DEVILS ISLAND    1800   31     310/ 11/ 15 1008.1F
SAXON HARBOR     1840   33     300/  9/ 16 1007.1R
$$

LMZ867-665-643>646-182000-
LAKE MICHIGAN

STATION/POSITION TIME  TEMP    WIND        PRES    WAVE
                       AIR SEA DIR/SP/G            HT/PER
                 (UTC) (F)     (DEG/KT/KT) (MB)    (FT/S)
N MID LAKE BUOY  1750   42 48  360/ 19/ 23 1000.9F   5/ 5
NORTHPORT PIER   1840   41     340/ 22/ 28 1001.0S
SHEBOYGAN LAKESH 1800   39     340/ 19/ 22 1000.6F
PORT WASHINGTON  1840   40     330/ 11/ 18 1001.7R
MILWAUKEE LAKESH 1830   39     340/ 18/ 22   N/A
S MID LAKE BUOY  1750   44 49   10/ 25/ 29  996.8S   6/ 6
KENOSHA   LAKESH 1800   36     340/ 18/ 23  998.6
$$

TC  - TEMPERATURE IN CELSIUS
VSB - VISIBILITY IN STATUTE MILES
WCI - WIND CHILL INDEX
HX  - HEAT INDEX





USA.gov is the U.S. government's official web portal to all federal, state and local government web resources and services.